Home   Weather   Kloten   Past weeks

Flag for Switzerland Past Weather in Kloten, Zurich, Switzerland — Yesterday and Last 2 Weeks

45 °F

Sprinkles. Fog.

Feels Like: 41 °F
Forecast: 35 / 59 °F
Wind: 6 mph from Northwest

Location: Zurich-Kloten

Current Time: Oct 23, 2016 at 6:25:29 PM

Latest Report: Oct 23, 2016 at 5:50 PM

Visibility: 2 mi

Pressure: 29.89 "Hg

Humidity: 100%

Dew Point: 45 °F

Location of KlotenLocation

Past Weather in Kloten — Graph


Kloten Temperature Yesterday

Maximum temperature yesterday: 50 °F (at 3:20 PM)
Minimum temperature yesterday: 32 °F (at 11:50 PM)
Average temperature yesterday: 40 °F

High & Low Weather Summary for the Past Weeks

High61 °F (Oct 15, 3:50 PM)100% (Oct 8, 9:50 PM)30.27 "Hg (Oct 8, 9:50 PM)
Low32 °F (Oct 13, 2:50 AM)54% (Oct 12, 3:50 PM)29.62 "Hg (Oct 14, 5:50 PM)
Average45 °F87%30.05 "Hg
* Reported Oct 8 5:20 PM — Oct 23 5:20 PM, Kloten, Weather by CustomWeather, © 2016

Note: Actual official high and low records may vary slightly from our data, if they occured in-between our weather recording intervals... More about our weather records


Kloten Weather History for the Previous 24 Hours

Scroll right to see more
Time TempWeatherWind HumidityBarometerVisibility
5:20 PM
Sun, Oct 23
46 °FRain showers. Fog.6 mph93%29.89 "Hg2 mi
4:50 PM46 °FRain showers. Fog.3 mph93%29.89 "Hg2 mi
4:20 PM46 °FRain showers. Partly sunny.2 mph87%29.89 "Hg3 mi
3:50 PM46 °FSprinkles. Partly sunny.2 mph87%29.86 "Hg4 mi
3:20 PM46 °FSprinkles. Partly sunny.3 mph87%29.86 "Hg4 mi
2:50 PM46 °FScattered showers. Partly sunny.2 mph87%29.86 "Hg4 mi
2:20 PM46 °FScattered showers. Partly sunny.3 mph87%29.89 "Hg4 mi
1:50 PM45 °FSprinkles. Partly sunny.3 mph93%29.89 "Hg3 mi
1:20 PM45 °FSprinkles. Partly sunny.2 mph87%29.92 "Hg4 mi
12:50 PM45 °FSprinkles. Partly sunny.3 mph87%29.89 "Hg4 mi
12:20 PM45 °FSprinkles. Fog.7 mph93%29.89 "Hg3 mi
11:50 AM45 °FFog.5 mph93%29.89 "Hg3 mi
11:20 AM45 °FFog.3 mph93%29.89 "Hg3 mi
10:50 AM43 °FFog.6 mph93%29.89 "Hg2 mi
10:20 AM43 °FFog.5 mph93%29.89 "Hg2 mi
9:50 AM41 °FFog.2 mph100%29.89 "Hg2 mi
9:20 AM41 °FFog.5 mph100%29.89 "Hg2 mi
8:50 AM41 °FFog.2 mph100%29.89 "Hg2 mi
8:20 AM41 °FFog.5 mph93%29.89 "Hg1 mi
7:50 AM41 °FFog.5 mph93%29.89 "Hg1 mi
7:20 AM41 °FFog.2 mph93%29.89 "Hg1 mi
6:50 AM39 °FLight rain. Fog.5 mph100%29.89 "Hg1 mi
6:20 AM39 °FFog.3 mph100%29.89 "Hg1 mi
5:50 AM39 °FFog.5 mph100%29.89 "Hg1 mi
5:20 AM39 °FFog.3 mph100%29.89 "Hg1 mi
4:50 AM39 °FFog.5 mph93%29.89 "Hg1 mi
4:20 AM36 °FFog.No wind100%29.89 "Hg1 mi
3:50 AM36 °FPartly cloudy.1 mph100%29.92 "Hg1 mi
3:20 AM36 °FFog.No wind93%29.92 "Hg1 mi
2:50 AM34 °FDense fog.No wind100%29.92 "Hg1 mi
1:50 AM32 °FPartly cloudy.1 mph100%29.95 "Hg1 mi
1:20 AM32 °FFog.1 mph100%29.95 "Hg0 mi
12:50 AM32 °FIce fog.2 mph100%29.95 "Hg1 mi
12:20 AM32 °FLight fog.3 mph100%29.95 "Hg1 mi
11:50 PM
Sat, Oct 22
32 °FChilly.2 mph100%29.95 "Hg2 mi
11:20 PM34 °FFog.1 mph100%29.95 "Hg4 mi
10:50 PM34 °FFog.1 mph100%29.95 "Hg4 mi
10:20 PM36 °FFog.1 mph93%29.95 "Hg4 mi
9:50 PM36 °FFog.1 mph100%29.95 "Hg4 mi
9:20 PM37 °FFog.2 mph93%29.95 "Hg5 mi
8:50 PM36 °FClear.3 mph100%29.95 "Hg10 mi
8:20 PM37 °FClear.2 mph93%29.95 "Hg10 mi
7:50 PM39 °FClear.2 mph81%29.95 "Hg10 mi
7:20 PM43 °FClear.1 mph81%29.95 "Hg10 mi
6:50 PM45 °FClear.3 mph81%29.95 "Hg10 mi
6:20 PM48 °FSunny.2 mph66%29.95 "Hg10 mi
Weather by CustomWeather, © 2016

See weather overviewHow to use our weather pages